Terug naar catalogus

STARLINK-11146

ActiefCommunicatieVLEO
NORAD 60729·PAYLOAD·🇺🇸 United States

Gelanceerd Aug 28, 2024 vanaf Cape Canaveral Space Force Station

Loading…

Volgende Passages (komende 24 uur)

TLE

VersSource: CelesTrak SupGP

Epoch: Sep 14, 2026, 21:27 UTC

1 60729C 24152K   26257.89423611  .00036912  00000+0  30407-3 0  2578
2 60729  53.1573 263.3375 0001135  87.0994 301.7791 15.69689626    13

Volg STARLINK-11146 in realtime met AllMySat

Download on the App Store